Tracking 34747 objects as of 16-Jul-2026
HD Live streaming from Space Station
objects crossing your sky now

ASTRO F DEB (LENS COVER)

Track ASTRO F DEB (LENS COVER) now!
10-day predictions


NORAD ID: 29054
Int'l Code: 2006-005E
Perigee: 670.1 km
Apogee: 684.3 km
Inclination: 98.1 °
Period: 98.1 minutes
Semi major axis: 7048 km
RCS: 0.5082 m2 (medium)
Launch date: February 21, 2006
Source: Japan (JPN)
Launch site: KAGOSHIMA SPACE CENTER UNIVERSITY OF TOKYO (KSCUT)

Note: This is SATELLITE DEBRIS
Your satellite tracking list
Your tracking list is empty




NASA's NSSDC Master Catalog

Two Line Element Set (TLE):
1 29054U 06005E   26197.45121425  .00000257  00000-0  54192-4 0  9999
2 29054  98.0685 211.2114 0010044 116.8227 243.4006 14.67192534 86720
Source of the keplerian elements: AFSPC